TimePDT,TemperatureF,Dew PointF,Humidity,Sea Level PressureIn,VisibilityMPH,Wind Direction,Wind SpeedMPH,Gust SpeedMPH,PrecipitationIn,Events,Conditions,WindDirDegrees,DateUTC
12:56 AM,37.9,36.0,93,30.22,10.0,South,3.5,-,N/A,,Clear,170,2013-03-30 07:56:00
1:56 AM,36.0,34.0,93,30.22,10.0,South,4.6,-,N/A,,Clear,170,2013-03-30 08:56:00
2:56 AM,36.0,34.0,93,30.22,10.0,South,5.8,-,N/A,,Clear,170,2013-03-30 09:56:00
3:56 AM,35.1,33.1,92,30.21,10.0,Calm,Calm,-,N/A,,Clear,0,2013-03-30 10:56:00
4:56 AM,34.0,30.9,89,30.22,10.0,Calm,Calm,-,N/A,,Clear,0,2013-03-30 11:56:00
5:56 AM,32.0,30.9,96,30.22,10.0,Calm,Calm,-,N/A,,Clear,0,2013-03-30 12:56:00
6:56 AM,33.1,30.9,92,30.23,10.0,SE,3.5,-,N/A,,Clear,140,2013-03-30 13:56:00
7:56 AM,37.9,36.0,93,30.23,10.0,South,3.5,-,N/A,,Clear,180,2013-03-30 14:56:00
8:56 AM,44.1,37.9,79,30.23,10.0,Calm,Calm,-,N/A,,Clear,0,2013-03-30 15:56:00
9:56 AM,52.0,39.9,63,30.22,10.0,Calm,Calm,-,N/A,,Clear,0,2013-03-30 16:56:00
10:56 AM,55.9,39.9,55,30.20,10.0,East,3.5,-,N/A,,Clear,80,2013-03-30 17:56:00
11:56 AM,62.1,39.9,44,30.19,10.0,Variable,3.5,-,N/A,,Clear,0,2013-03-30 18:56:00
12:56 PM,64.9,39.0,39,30.15,10.0,Variable,4.6,-,N/A,,Clear,0,2013-03-30 19:56:00
1:56 PM,68.0,39.9,36,30.13,10.0,Variable,6.9,-,N/A,,Clear,0,2013-03-30 20:56:00
2:56 PM,70.0,41.0,35,30.10,10.0,NNW,10.4,-,N/A,,Clear,330,2013-03-30 21:56:00
3:56 PM,70.0,41.0,35,30.08,10.0,NNW,10.4,-,N/A,,Clear,340,2013-03-30 22:56:00
4:56 PM,71.1,37.9,30,30.06,10.0,North,9.2,-,N/A,,Clear,10,2013-03-30 23:56:00
5:56 PM,69.1,39.9,35,30.05,10.0,NNW,11.5,-,N/A,,Clear,340,2013-03-31 00:56:00
6:56 PM,64.0,39.0,40,30.06,10.0,North,8.1,-,N/A,,Clear,350,2013-03-31 01:56:00
7:56 PM,59.0,39.9,49,30.06,10.0,NNW,6.9,-,N/A,,Clear,330,2013-03-31 02:56:00
8:56 PM,57.0,41.0,55,30.06,10.0,NW,8.1,-,N/A,,Clear,310,2013-03-31 03:56:00
9:56 PM,54.0,41.0,62,30.06,10.0,NW,8.1,-,N/A,,Clear,310,2013-03-31 04:56:00
10:56 PM,52.0,41.0,66,30.06,10.0,NW,9.2,-,N/A,,Clear,310,2013-03-31 05:56:00
11:56 PM,48.9,39.9,71,30.04,10.0,NW,6.9,-,N/A,,Clear,320,2013-03-31 06:56:00